Location: Carri�res
(48.9069°N, 2.1792°E)
Time: 13:17:09
(UTC+00:00)

SeaSat 1 - Pass Details

Date: 17 January 2021
Orbit: 744 x 747 km, 108.0° (Epoch: 25 February)

Event Time Altitude Azimuth Distance (km) Brightness Sun altitude
Rises 17:04:15 0° 23° (NNE) 3,201 5.3 -6.5°
Reaches altitude 10° 17:06:44 10° 13° (NNE) 2,274 4.6 -6.9°
Maximum altitude 17:11:00 31° 313° (NW) 1,310 4.0 -7.5°
Drops below altitude 10° 17:15:17 10° 253° (WSW) 2,265 6.7 -8.1°
Sets 17:17:45 0° 243° (WSW) 3,185 8.1 -8.5°
